Погода в Кизляре

Погода в Кизляре : погода сейчас, прогноз погоды и архив. Всё, что Вы хотите узнать о погоде в Кизляре!

Поиск расширенной информации на нашем сайте:

Другие новости

Новости СМИ2

Главная страница сайта

Новости сайта

03.07.2017

Напоминаем, что на нашем специализированном сайте Метеоцентр.Азия вы можете получить высокодетализированные автоматические прогнозы погоды по пунктам России, СНГ и мира в авиационном формате (включающие направление и скорость ветра, видимость, явления погоды, количество и форму облачности, нижнюю и верхнюю границу облачности).


Погода в Кизляре - сегодня

Время (UTC), дата Ветер
(°,м/с) 
Видим.   Явления Облачность Т
(°С)
Тd
(°С)
f(%) Тe
(°С)
Pmin
(гПа)
dP
(гПа)
Po
(мм)
O2
(г/м3)
Тmin Tmax R s Состояние
почвы
09 20.01.18 300 (СЗ) 10 км    8/8 600 м средняя 
[Sc|Ac trans]
+1.6 -0.7 85 1022.8  -0.5  768  308           
12 20.01.18 360 (С) 10 км    3/0 средняя 
[Ac trans]
+6 +1.3 72 +7  1022.3  -0.5  767  302           
15 20.01.18 110 (В) 4000 м  дымка  4/4 600 м средняя 
[Sc|Ac trans]
+1.4 +0.7 95 +1  1022.8  0.4  767  308    +6       
18 20.01.18 110 (В) 4000 м  дымка  ясно 
-1.6 -1.9 98 -4  1021.9  -0.9  767  311           
21 20.01.18 080 (В) 4000 м  дымка  6/6 600 м средняя 
[Sc|Ac trans]
-1.8 -1.8 100 -4  1020.9  -1  766  311           
00 21.01.18 070 (В) 4000 м  дымка  10/10 600 м 
[Sc]
-0 -0 100 -2  1019.1  -1.7  765  308           
03 21.01.18 070 (В) 4000 м  дымка  10/10 600 м 
[Sc]
+1.2 +1.2 100 -1  1015.7  -3.4  762  306  -2.2        влажная 
06 21.01.18 100 (В) 8-11{13}  4000 м  дымка  10/10 600 м 
[Sc]
+4 +3.3 95 +1  1014.4  -1.3  761  302           
09 21.01.18 100 (В) 9-11{14}  10 км    10/10 600 м 
[Sc]
+5.2 +3.9 91 +2  1012.1  -2.3  759  300           
12 21.01.18 110 (В) 6{12}  10 км    10/10 600 м 
[Sc]
+4.9 +3.8 93 +2  1012.2  0.1  760  300           
15 21.01.18 260 (З) 4000 м  дымка  10/10 600 м 
[Sc]
+3.1 +3 99 +3  1015.5  3.4  762  303    +5.6       
18 21.01.18 250 (З) 4000 м  дымка  10/10 600 м 
[Sc]
+2.2 +2.1 99 +2  1017.3  1.8  763  305           
21 21.01.18 280 (З) 4000 м  дымка  10/10 600 м 
[Sc]
+1.8 +1.8 100 1019.2  1.8  765  306           
00 22.01.18 220 (ЮЗ) 4000 м  дымка  10/10 600 м 
[Sc]
+1.4 +1.4 100 +1  1019  0.1  765  306           
03 22.01.18 030 (СВ) 4000 м  дымка  10/10 600 м 
[Sc]
+1.5 +1.4 99 +2  1017.3  -1.7  763  306  +1.3        влажная 
06 22.01.18 030 (СВ) 4000 м  дымка  10/10 600 м 
[Sc]
+2.3 +2.2 99 +1  1015.1  -2.1  762  304           
09 22.01.18 050 (СВ) 5{11}  4000 м  дымка  10/10 600 м 
[Sc]
+3.4 +2.9 97 +1  1011.6  -3.5  759  302           
12 22.01.18 050 (СВ) 2000 м  дымка  10/10 600 м 
[Sc]
+4.3 +4.2 99 +3  1009.1  -2.5  757  300           
15 22.01.18 050 (СВ) 2000 м  слаб. морось  10/10 600 м 
[St]
+4.3 +4.3 100 +3  1007.7  -1.3  756  299    +4.7  0.0     
18 22.01.18 270 (З) 2000 м  слаб. морось  10/10 600 м 
[St]
+3.2 +3.2 100 +3  1008.3  0.6  757  301           
21 22.01.18 290 (З) 2000 м  слаб. морось  10/10 600 м 
[St]
+2 +2 100 +1  1008.6  0.3  757  302           
00 23.01.18 280 (З) 2000 м  слаб. морось  10/10 600 м 
[St]
+1.5 +1.5 100 1009.3  0.7  757  303           
03 23.01.18 290 (З) 2000 м  дымка{морось}  10/10 600 м 
[Sc]
+0.5 +0.5 100 -1  1010  0.7  758  305  +0.5    0.8    влажная 
06 23.01.18 280 (З) 4000 м  дымка{морось}  10/10 600 м 
[Sc]
+0.7 +0.7 100 -1  1010.5  0.5  758  305           
09 23.01.18 310 (СЗ) 4000 м  дымка  10/10 600 м 
[Sc]
+2 +1.4 96 +1  1010.2  -0.3  758  303           
Время (UTC), дата Ветер
(°,м/с) 
Видим.   Явления Облачность Т
(°С)
Тd
(°С)
f(%) Тe
(°С)
Pmin
(гПа)
dP
(гПа)
Po
(мм)
O2
(г/м3)
Тmin Tmax R s Состояние
почвы

Для получения пояснительной информации подведите курсор к названию столбца.

ПОГОДА в Кизляре - архив

Всё, что Вы хотите узнать о погоде в Кизляре - удобно и подробно!

Выберите нужную дату (начиная с 1 января 2015* года) и нажмите кнопку "Найти".
Будут отображены архивные сводки погоды по пункту Кизляр, начиная с указанной даты.


Отображать данные в формате CSV (для использования в таблицах Excel)


Внимание! Наш архив погоды предназначен исключительно для личного некоммерческого использования в познавательных целях. Если Вам необходимы официальные справки о состоянии погоды (для производственных, юридических, коммерческих и т.п. целей), обращайтесь в органы Росгидромета.

*Примечание: данная дата относится к архиву по метеостанциям СССР (Россия, СНГ, Балтия).
Архив по метеостанциям Зарубежной Европы и Азии (кроме Китая) хранится 10 дней, по другим регионам земного шара (Китай, Африка, Америка, Австралия, Океания) - 1 день.

Кизляр - район местоположения метеостанции


Название, широта, долгота, высота метеостанции:
Кизляр 43.8°ш. 46.7°д. -5 м над ур. моря [Российская Федерация]

Дополнительная информация

В oтличие oт бoльшинства пoгoдных сайтoв мы публикуем пoдрoбную метеoинфoрмацию в детальнoм прoфессиoнальнoм фoрмате.

Характеристики температуры и влажнoсти вoздуха измеряются на высoте 2 м в тени вдали oт зданий и деревьев.
Скoрoсть ветра измеряется на высoте 10 м (на урoвне рoста челoвека скoрoсть ветра ниже в 1.5-2 раза). Если метеoстанция нахoдится в гoрoде или в лесу, тo скoрoсть ветра занижена на 2-4 м/с пo сравнению с oткрытым местoм. Скoрoсть ветра над акватoриями крупных рек и oзёр, а также на вершинах хoлмoв на 2-5 м/с выше, чем в oбычных услoвиях.
Атмoсфернoе давление в разных тoчках местнoсти мoжет значительнo oтличаться oт давления на метеoстанции, в зависимoсти oт услoвий рельефа (при пoдъёме на 10 м давление пoнижается примернo на 1 мм рт.ст.).